Location: *
(34.8620°S, 39.3380°E)
Time: 19:11:00
(UTC+00:00)

Lacrosse 4 Rocket - Pass Details

Date: 05 December 2021
Orbit: 535 x 620 km, 68.0° (Epoch: 24 January)

Event Time Altitude Azimuth Distance (km) Brightness Sun altitude
Rises 17:50:27 0° 206° (SSW) 2,733 6.2 -15.2°
Reaches altitude 10° 17:52:41 10° 206° (SSW) 1,826 5.1 -15.5°
Maximum altitude 17:56:45 86° 292° (WNW) 550 1.2 -16.1°
Enters shadow 17:58:39 30° 21° (NNE) 977 2.1 -16.4°
